Tracking 19651 objects as of 23-Apr-2019
HD Live streaming from Space Station
objects crossing your sky now

COSMOS 1823 DEB

Track COSMOS 1823 DEB now!
10-day predictions


NORAD ID: 26111
Int'l Code: 1987-020DS
Perigee: 1,480.8 km
Apogee: 1,525.8 km
Inclination: 73.6 °
Period: 115.9 minutes
Semi major axis: 7874 km
RCS: 0.081 m2 (small)
Launch date: February 20, 1987
Source: Commonwealth of Independent States (former USSR) (CIS)
Launch site: PLESETSK MISSILE AND SPACE COMPLEX (PKMTR)

Note: This is SATELLITE DEBRIS
aabbcc
Your satellite tracking list
Your tracking list is empty




NASA's NSSDC Master Catalog

Two Line Element Set (TLE):
1 26111U 87020DS  19112.98934611  .00000009  00000-0  19183-3 0  9997
2 26111  73.5995 294.1406 0028567  20.6164 102.1817 12.42459168458430
Source of the keplerian elements: AFSPC